Weather in Kononovo

Russia / Arkhangel'skaya Oblast'     61°07′10″N   38°46′31″E
temp.,
°C
wind,
m/s
gust,
m/s
humid.,
%
clouds,
%
prec.,
mm/h
press.,
hPa
HPBL,
m
28 november, sun
sun2800:00−5ne51295100 1.9 1004494
03:00−5ne51294100 4.3 1002541
06:00−6ne41095100 2.4 1000483
09:00−6ne41095100 3.9 1000458
12:00−6nne4994100 0.9 1000419
15:00−7ne41095100 2.0 1000408
18:00−7nne4895100 2.1 1001414
21:00−8n3795100 4.8 1002416
29 november, mon
mon2900:00−9nnw369581 0.3 1006313
03:00−11nnw259774 0.3 1009154
06:00−15nne119986 0.0 101021
09:00−16ne1399100 0.1 101343
12:00−13ene259469 0.0 1012166
15:00−13ne3895100 0.0 1011217
18:00−14ne31095100 0.0 1011287
21:00−14ene31294100 0.0 1008326
30 november, tue
tue3000:00−12ene41393100 0.0 1004377
03:00−11ne41394100 0.5 1000399
06:00−10ne51593100 1.1 995483
09:00−9ne51693100 1.5 991574
12:00−9ne51394100 0.9 986535
15:00−9ne51393100 1.9 983566
18:00−9nne41194100 0.4 981532
21:00−8nne41094100 1.0 979507
1 december, wed
wed100:00−9nne3893100 0.4 979427
03:00−9n2695100 0.5 980318
06:00−9nnw259588 0.4 981259
09:00−10nw139695 0.6 983130
12:00−9wnw239492 0.2 984224
15:00−10w2496100 0.3 985188
18:00−11wsw259785 0.2 987153
21:00−10sw2696100 0.4 987241
2 december, thu
thu200:00−8wsw3894100 0.3 987365
03:00−8wsw4129194 0.4 988511
06:00−10wsw4129272 0.0 989385
09:00−12wsw4119365 0.0 991309
12:00−12wsw3109363 0.0 992357
15:00−12sw4109380 0.0 993323
18:00−14sw399674 0.0 995225
21:00−15sw399740 0.0 996160